Terminal Aerodrome Forecast
Issued by NWS Milwaukee/Sullivan, WI

Home | Current Version | Previous Version | Text Only | Print | Product List | Glossary On
Versions: 1 2 3 4 5 6 7 8 9 10 11 12 13 14 15 16 17 18 19 20 21 22 23 24 25 26 27 28 29 30 31 32 33 34 35 36 37 38 39 40 41 42 43 44 45 46 47 48 49 50
000
FTUS43 KMKX 241144
TAFMKE
TAF
KMKE 241144Z 2412/2518 01005KT P6SM SKC
     FM241800 07009KT P6SM FEW250
     FM242100 11009KT P6SM FEW250
     FM250100 14005KT P6SM FEW250
     FM250300 00000KT P6SM SCT250
     FM251600 20010KT P6SM VCTS SCT050CB OVC100=

USA.gov is the U.S. government's official web portal to all federal, state and local government web resources and services.